sat.trackr.live / text

‹ back to catalog

STARLINK-32772

NORAD 63033 · 2025-034E

PAYLOAD ACTIVE UNKNOWN

§ Identity

Operator
Country
US
Launch date
2025-02-18
Launch site
AFETR
Launch vehicle
Mass (kg)
RCS (m²)

Purposes: comms

External: N2YO · Heavens-Above · Gunter

§ Orbital elements

Epoch: 2026-09-21T18:34:43.967136Z

Period
94.01 min
Inclination
53.1600°
Eccentricity
0.0001190
Mean motion
15.31708710 rev/d
Perigee alt
469.9 km
Apogee alt
471.5 km
Semi-major
6,848.9 km
B*
4.1498e-4
RAAN
66.2436°
Arg perigee
78.7514°
Mean anomaly
281.3621°
Rev number
8,912

§ Raw data

STARLINK-327721 63033U 25034E   26264.77411999  .00012537  00000+0  41498-3 0  99922 63033  53.1600  66.2436 0001190  78.7514 281.3621 15.31708710 89128

JSON: /api/v1/satellites/63033 · /tle

For live sub-satellite position, see the globe view (requires WebGL).

§ Visibility from observer

Set your observer location to see the next 7 days of passes ≥ 10°. The values pass through the URL so the page stays shareable.

No JS? Fill the form by hand. The geolocation button needs JavaScript.